Weather observations for the past three days for
Russell, Russell Municipal Airport
Metric (Imperial)
Date Time (cdt) Wind (kph) Vis. (km) Weather Sky Cond. Temperature (ºC) Relative Humidity Wind Chill (°C) Heat Index (°C) Pressure Precipitation (cm)
Air Dwpt 6 hour altimeter (cm) sea level (mb) 1 hr 3 hr 6 hr
Max. Min.
24 23:53 E 6 16.09 Fair CLR 15 6.7 58% 75.87 1010.8
24 22:53 Calm 16.09 Fair CLR 15 6.7 58% 75.9 1011.2
24 21:53 N 7 16.09 Fair CLR 18.3 5 42% 75.84 1010.2
24 20:53 N 9 16.09 Fair CLR 20 6.1 40% 75.79 1009.8
24 19:53 N 9 16.09 Fair CLR 21.7 8.3 42% 75.79 1009.5
24 18:53 N 13 16.09 Fair CLR 23.3 6.7 23.9 20 34% 75.77 1009.2
24 17:53 Vrbl 9 16.09 Fair CLR 23.3 7.2 36% 75.77 1009.3
24 16:53 NW 7 16.09 Fair CLR 22.8 6.1 34% 75.77 1009.1
24 15:53 N 20 G 33 16.09 Fair CLR 22.8 7.8 38% 75.77 1009.1
24 14:53 NW 20 G 35 16.09 Fair CLR 22.2 7.2 38% 75.79 1009.3
24 13:53 N 28 G 44 16.09 Fair CLR 21.1 7.8 42% 75.79 1009.0
24 12:53 N 22 G 39 16.09 Fair CLR 20 6.1 20 12.2 40% 75.82 1009.2
24 11:53 N 31 G 44 16.09 Fair CLR 18.9 6.1 43% 75.79 1009.1
24 10:53 N 35 G 52 16.09 Fair and Breezy CLR 17.8 5.6 45% 75.77 1009.0
24 09:53 NW 44 G 56 16.09 A Few Clouds and Windy FEW004 16.1 4.4 46% 75.77 1008.9
24 08:53 NW 44 G 57 6.44 Partly Cloudy with Haze and Windy SCT003 15 4.4 49% 75.72 1008.4
24 07:53 NW 37 G 56 16.09 Fair and Breezy CLR 13.9 4.4 53% 75.67 1007.6
24 05:53 NW 24 16.09 Fair CLR 12.8 8.3 74% 75.49 1005.2
24 04:53 NW 26 16.09 Fair CLR 13.9 8.3 69% 75.41 1004.0
24 03:53 N 39 G 57 16.09 Fair and Breezy CLR 16.1 7.2 56% 75.29 1002.3
24 02:53 NW 48 G 63 14.48 Partly Cloudy and Windy FEW018 FEW035 SCT048 17.8 14.4 81% 75.21 1001.2
24 01:53 SW 33 G 46 16.09 Fair and Breezy CLR 22.8 20 84% 75.06 998.8
24 00:53 S 44 G 69 16.09 Fair and Windy CLR 23.9 20.6 26.1 23.3 82% 24 74.88 996.5
23 23:53 S 50 G 74 14.48 Overcast and Windy BKN021 OVC028 24.4 21.1 82% 25 74.98 997.9
23 22:53 S 39 G 59 16.09 Overcast and Breezy OVC024 23.3 20.6 85% 75.01 998.3
23 21:53 S 41 G 59 16.09 Fair and Breezy CLR 23.9 20 79% 24 75.01 998.3
23 20:53 S 31 G 52 16.09 Fair CLR 24.4 18.3 69% 25 75.01 998.5
23 19:53 SE 30 16.09 Fair CLR 25.6 18.3 64% 27 75.06 999.4
23 18:53 S 44 G 57 16.09 Fair and Windy CLR 26.1 17.8 27.2 23.3 60% 27 75.08 999.6
23 17:53 S 37 G 48 16.09 Fair and Breezy CLR 26.7 17.2 56% 27 75.16 1000.7
23 16:53 S 33 G 50 16.09 Partly Cloudy and Breezy SCT045 26.7 17.2 56% 27 75.23 1001.6
23 15:53 S 33 G 54 16.09 Partly Cloudy and Breezy FEW042 SCT055 26.7 17.2 56% 27 75.29 1002.5
23 14:53 S 31 G 48 16.09 Overcast BKN041 OVC055 25.6 17.2 60% 27 75.39 1003.6
23 13:53 S 31 G 46 16.09 Overcast OVC042 23.3 16.1 64% 75.44 1004.6
23 12:53 SE 30 G 52 16.09 Overcast FEW039 OVC048 23.3 15 23.9 13.3 60% 75.49 1005.2
23 11:53 S 31 G 56 16.09 Mostly Cloudy BKN044 23.3 13.9 56% 75.57 1006.4
23 10:53 S 30 G 48 16.09 Fair CLR 21.7 11.7 53% 75.64 1007.4
23 09:53 Calm 16.09 Fair CLR 19.4 12.8 66% 75.72 1008.6
23 08:53 Calm 16.09 Fair CLR 17.2 12.8 76% 75.79 1009.6
23 06:53 Calm 16.09 Mostly Cloudy BKN090 13.3 11.1 14.4 12.8 87% 75.74 1008.8 0.03
23 05:53 Calm 16.09 Fair CLR 13.3 11.1 87% 75.72 1008.6
23 04:53 Calm 16.09 Fair CLR 13.9 11.1 83% 75.77 1009.2
23 03:53 Calm 16.09 Mostly Cloudy FEW100 BKN120 14.4 11.7 84% 75.87 1010.4 0.03 0.03
23 02:53 Calm 16.09 Thunderstorm in Vicinity FEW070 BKN110 13.9 11.1 83% 76 1012.3
23 01:53 Calm 16.09 Fair CLR 14.4 10 75% 75.84 1010.4
23 00:53 Calm 16.09 Fair CLR 14.4 9.4 23.3 13.9 72% 75.84 1010.3
22 23:53 Calm 16.09 Fair CLR 14.4 9.4 72% 75.9 1010.9
22 22:53 Calm 16.09 Fair CLR 15 9.4 69% 75.87 1010.9
22 21:53 Calm 16.09 Fair CLR 15.6 10.6 72% 75.87 1010.8
22 20:53 Calm 16.09 Fair CLR 16.7 11.7 73% 75.84 1010.6
22 19:53 Calm 16.09 Fair CLR 21.1 8.9 46% 75.82 1009.9
22 18:53 Calm 16.09 Fair CLR 22.8 7.2 22.8 20.6 37% 75.82 1009.9
22 17:53 Calm 16.09 Fair CLR 22.2 5 33% 75.82 1010.1
22 15:53 Calm 16.09 Fair CLR 22.2 7.2 38% 75.95 1011.7
22 14:53 Calm 16.09 Fair CLR 21.7 6.7 38% 76.02 1012.6
22 13:53 Calm 16.09 Fair CLR 21.1 6.7 39% 76.07 1013.4
22 12:53 Calm 16.09 Fair CLR 20.6 7.2 21.1 11.1 42% 76.12 1013.9
22 11:53 Calm 16.09 Fair CLR 19.4 8.3 49% 76.12 1014.0
22 10:53 Calm 16.09 Fair CLR 17.8 10 60% 76.12 1014.2
22 09:53 Calm 16.09 Fair CLR 16.7 10.6 67% 76.15 1014.4
22 08:53 Calm 16.09 Fair CLR 14.4 11.7 84% 76.17 1014.9
22 07:53 Calm 16.09 Fair CLR 12.8 11.7 93% 76.15 1014.5
22 06:53 Calm 16.09 Overcast OVC110 11.1 10.6 13.9 11.1 97% 76.17 1015.0 1.04
22 05:53 Calm 16.09 Partly Cloudy SCT110 11.1 10.6 97% 76.1 1014.0
22 04:53 Calm 16.09 Light Rain SCT050 BKN070 OVC085 12.2 11.1 93% 76.05 1013.0 0.18
22 03:53 Calm 9.66 Light Rain Fog/Mist OVC075 12.2 11.7 97% 76.12 1014.3 0.46 0.86
22 02:53 Calm 14.48 Light Rain FEW032 BKN075 OVC090 12.8 11.7 93% 76.2 1015.3 0.41
22 01:53 Calm 16.09 Overcast BKN090 OVC110 13.3 12.2 93% 76.07 1013.5
22 00:53 Calm 16.09 Thunderstorm in Vicinity FEW065 FEW080 OVC095 13.9 12.2 21.1 13.9 90% 76.02 1012.9 0.03 0.03
Date Time (cdt) Wind (kph) Vis. (km) Weather Sky Cond. Air Dwpt Max. Min. Relative Humidity Wind Chill (°C) Heat Index (°C) altimeter (cm) sea level (mb) 1 hr 3 hr 6 hr
6 hour
Temperature (ºC) Pressure Precipitation (cm)